{"data":{"norad_id":55304,"intl_designator":"2023-010AM","name":"STARLINK-5318","alt_names":[],"object_type":"PAYLOAD","status":"ACTIVE","operator":null,"country":"US","launch_date":"2023-01-19","launch_site_code":"AFWTR","launch_vehicle":null,"mission":null,"orbit_class":"UNKNOWN","rcs_meters":null,"size_class":null,"mass_kg":null,"dimensions":null,"purposes":["comms"],"wikipedia_slug":null,"has_3d_model":false,"image_url":null,"decayed_at":null,"tle_current":{"epoch":"2026-05-25T03:04:21.993312Z","epoch_age_seconds":61205,"freshness":"FRESH","line1":"1 55304U 23010AM  26145.12803233  .00000600  00000+0  58063-4 0  9994","line2":"2 55304  69.9989 191.5333 0003771 267.5847  92.4880 14.98328934184725","mean_motion":14.98328934,"eccentricity":0.0003771,"inclination_deg":69.9989,"raan_deg":191.5333,"arg_perigee_deg":267.5847,"mean_anomaly_deg":92.488,"bstar":5.8063e-5,"rev_number":18472,"period_min":96.107067501908,"perigee_km":569.43826848114,"apogee_km":574.68010644573,"semimajor_km":6950.1961874634,"source":"CELESTRAK","updated_at":"2026-05-25T13:38:17.755168Z"}}}